When you browse on this site, cookies collect data to enhance your experience and personalize the content and advertising you see.
Visit our Privacy Policy to learn more. By continuing to use the site, you agree to this use of cookies and data.
  • En España
  • Lista de países
  • Para 7 días
  • Temperatura del agua
  • Mapa Satelital
  • El tiempo en el mapa
  • Informadores
  • user-avatar
    Iniciar sesión

    Tiempo cada hora Makove

    Hoy, 24 Mayo, Viernes

    Tiempo Temperatura Precipitaciones Viento Presión Humedad
    00:00 +15°C° 0 mm 1 mps 742 mmHg 83%
    01:00 +15°C° 0 mm 1 mps 742 mmHg 85%
    02:00 +15°C° 0 mm 1 mps 742 mmHg 84%
    03:00 +15°C° 0 mm 1 mps 742 mmHg 84%
    04:00 +15°C° 0 mm 1 mps 742 mmHg 84%
    05:00 +15°C° 0 mm 1 mps 742 mmHg 85%
    06:00 +18°C° 0 mm 1 mps 742 mmHg 78%
    07:00 +19°C° 0 mm 2 mps 743 mmHg 72%
    08:00 +21°C° 0 mm 2 mps 743 mmHg 66%
    09:00 +23°C° 0 mm 2 mps 743 mmHg 61%
    10:00 +24°C° 0 mm 2 mps 742 mmHg 56%
    11:00 +25°C° 0 mm 2 mps 742 mmHg 52%
    12:00 +26°C° 0 mm 2 mps 742 mmHg 49%
    13:00 +26°C° 0 mm 2 mps 742 mmHg 47%
    14:00 +27°C° 0 mm 2 mps 742 mmHg 45%
    15:00 +26°C° 0 mm 2 mps 742 mmHg 49%
    16:00 +25°C° 0 mm 2 mps 742 mmHg 54%
    17:00 +24°C° 0 mm 2 mps 741 mmHg 59%
    18:00 +23°C° 0 mm 2 mps 741 mmHg 61%
    19:00 +21°C° 0 mm 2 mps 741 mmHg 63%
    20:00 +20°C° 0 mm 2 mps 741 mmHg 65%
    21:00 +19°C° 0.5 mm 2 mps 741 mmHg 69%
    22:00 +18°C° 0.5 mm 2 mps 741 mmHg 73%
    23:00 +17°C° 0.5 mm 2 mps 741 mmHg 76%

    Mañana, 25 Mayo, Sábado

    Tiempo Temperatura Precipitaciones Viento Presión Humedad
    00:00 +17°C° 0.2 mm 2 mps 741 mmHg 79%
    01:00 +18°C° 0.2 mm 1 mps 741 mmHg 82%
    02:00 +16°C° 0.2 mm 1 mps 741 mmHg 84%
    03:00 +16°C° 0.2 mm 1 mps 741 mmHg 85%
    04:00 +16°C° 0.2 mm 1 mps 740 mmHg 86%
    05:00 +16°C° 0.2 mm 1 mps 740 mmHg 87%
    06:00 +19°C° 0 mm 1 mps 740 mmHg 81%
    07:00 +19°C° 0 mm 2 mps 740 mmHg 75%
    08:00 +21°C° 0 mm 2 mps 740 mmHg 69%
    09:00 +23°C° 0.6 mm 2 mps 740 mmHg 64%
    10:00 +24°C° 0.6 mm 3 mps 740 mmHg 59%
    11:00 +25°C° 0.6 mm 3 mps 740 mmHg 54%
    12:00 +25°C° 0 mm 3 mps 740 mmHg 54%
    13:00 +25°C° 0 mm 3 mps 740 mmHg 54%
    14:00 +25°C° 0 mm 3 mps 740 mmHg 53%
    15:00 +25°C° 1.7 mm 3 mps 739 mmHg 57%
    16:00 +24°C° 1.7 mm 3 mps 739 mmHg 61%
    17:00 +24°C° 1.7 mm 2 mps 739 mmHg 65%
    18:00 +21°C° 1 mm 2 mps 739 mmHg 70%
    19:00 +20°C° 1 mm 2 mps 739 mmHg 75%
    20:00 +18°C° 1 mm 3 mps 739 mmHg 79%
    21:00 +18°C° 0 mm 2 mps 740 mmHg 81%
    22:00 +18°C° 0 mm 2 mps 740 mmHg 82%
    23:00 +17°C° 0 mm 2 mps 740 mmHg 83%

    Pasado mañana, 26 Mayo, Domingo

    Tiempo Temperatura Precipitaciones Viento Presión Humedad
    00:00 +17°C° 0 mm 2 mps 740 mmHg 86%
    01:00 +17°C° 0 mm 3 mps 740 mmHg 89%
    02:00 +16°C° 0 mm 3 mps 740 mmHg 92%
    03:00 +16°C° 0.1 mm 3 mps 740 mmHg 93%
    04:00 +16°C° 0.1 mm 3 mps 740 mmHg 93%
    05:00 +16°C° 0.1 mm 3 mps 741 mmHg 94%
    06:00 +17°C° 0.2 mm 4 mps 741 mmHg 88%
    07:00 +19°C° 0.2 mm 5 mps 742 mmHg 83%
    08:00 +21°C° 0.2 mm 5 mps 742 mmHg 77%
    09:00 +22°C° 0.3 mm 5 mps 742 mmHg 71%
    10:00 +23°C° 0.3 mm 5 mps 742 mmHg 65%
    11:00 +25°C° 0.3 mm 5 mps 743 mmHg 59%
    12:00 +25°C° 0 mm 5 mps 743 mmHg 57%
    13:00 +25°C° 0 mm 5 mps 743 mmHg 54%
    14:00 +25°C° 0 mm 5 mps 743 mmHg 52%
    15:00 +25°C° 0 mm 5 mps 743 mmHg 54%
    16:00 +25°C° 0 mm 5 mps 743 mmHg 56%
    17:00 +25°C° 0 mm 4 mps 744 mmHg 57%
    18:00 +22°C° 0 mm 4 mps 744 mmHg 65%
    19:00 +20°C° 0 mm 3 mps 744 mmHg 73%
    20:00 +18°C° 0 mm 2 mps 745 mmHg 81%
    21:00 +18°C° 0 mm 2 mps 745 mmHg 82%
    22:00 +18°C° 0 mm 2 mps 745 mmHg 83%
    23:00 +17°C° 0 mm 2 mps 746 mmHg 84%

    27 Mayo, Lunes

    Tiempo Temperatura Precipitaciones Viento Presión Humedad
    00:00 +17°C° 0 mm 2 mps 746 mmHg 86%
    01:00 +16°C° 0 mm 2 mps 746 mmHg 87%
    02:00 +16°C° 0 mm 2 mps 746 mmHg 89%
    03:00 +16°C° 0 mm 2 mps 747 mmHg 88%
    04:00 +16°C° 0 mm 1 mps 747 mmHg 88%
    05:00 +16°C° 0 mm 1 mps 747 mmHg 88%
    06:00 +19°C° 0 mm 1 mps 747 mmHg 80%
    07:00 +21°C° 0 mm 1 mps 747 mmHg 73%
    08:00 +23°C° 0 mm 1 mps 748 mmHg 66%
    09:00 +24°C° 0 mm 2 mps 748 mmHg 61%
    10:00 +25°C° 0 mm 2 mps 748 mmHg 57%
    11:00 +26°C° 0 mm 3 mps 748 mmHg 52%
    12:00 +27°C° 0 mm 3 mps 748 mmHg 51%
    13:00 +27°C° 0 mm 3 mps 748 mmHg 50%
    14:00 +28°C° 0 mm 4 mps 748 mmHg 49%
    15:00 +28°C° 0 mm 4 mps 748 mmHg 50%
    16:00 +28°C° 0 mm 3 mps 748 mmHg 51%
    17:00 +28°C° 0 mm 3 mps 748 mmHg 52%
    18:00 +26°C° 0 mm 3 mps 748 mmHg 57%
    19:00 +24°C° 0 mm 3 mps 748 mmHg 62%
    20:00 +22°C° 0 mm 3 mps 748 mmHg 67%
    21:00 +21°C° 0 mm 3 mps 748 mmHg 70%
    22:00 +20°C° 0 mm 3 mps 748 mmHg 72%
    23:00 +19°C° 0 mm 3 mps 748 mmHg 75%

    28 Mayo, Martes

    Tiempo Temperatura Precipitaciones Viento Presión Humedad
    00:00 +19°C° 0 mm 3 mps 748 mmHg 76%
    01:00 +18°C° 0 mm 3 mps 748 mmHg 77%
    02:00 +17°C° 0 mm 3 mps 748 mmHg 78%
    03:00 +17°C° 0 mm 3 mps 748 mmHg 80%
    04:00 +17°C° 0 mm 2 mps 748 mmHg 81%
    05:00 +17°C° 0 mm 2 mps 748 mmHg 83%
    06:00 +19°C° 0 mm 3 mps 749 mmHg 77%
    07:00 +21°C° 0 mm 3 mps 749 mmHg 71%
    08:00 +23°C° 0 mm 4 mps 749 mmHg 64%
    09:00 +25°C° 0 mm 5 mps 749 mmHg 61%
    10:00 +26°C° 0 mm 5 mps 748 mmHg 57%
    11:00 +28°C° 0 mm 6 mps 748 mmHg 53%
    12:00 +28°C° 0 mm 7 mps 748 mmHg 51%
    13:00 +28°C° 0 mm 7 mps 748 mmHg 48%
    14:00 +29°C° 0 mm 7 mps 747 mmHg 46%
    15:00 +28°C° 0 mm 6 mps 747 mmHg 49%
    16:00 +28°C° 0 mm 6 mps 747 mmHg 52%
    17:00 +27°C° 0 mm 6 mps 746 mmHg 54%
    18:00 +26°C° 0 mm 6 mps 746 mmHg 58%
    19:00 +23°C° 0 mm 6 mps 746 mmHg 62%
    20:00 +22°C° 0 mm 6 mps 746 mmHg 66%
    21:00 +21°C° 0 mm 6 mps 746 mmHg 68%
    22:00 +20°C° 0 mm 6 mps 746 mmHg 71%
    23:00 +19°C° 0 mm 6 mps 747 mmHg 74%

    29 Mayo, Miércoles

    Tiempo Temperatura Precipitaciones Viento Presión Humedad
    00:00 +19°C° 0 mm 5 mps 746 mmHg 77%
    01:00 +17°C° 0 mm 5 mps 746 mmHg 80%
    02:00 +17°C° 0 mm 5 mps 746 mmHg 83%
    03:00 +17°C° 0 mm 5 mps 746 mmHg 85%
    04:00 +17°C° 0 mm 5 mps 746 mmHg 86%
    05:00 +17°C° 0 mm 6 mps 746 mmHg 88%
    06:00 +19°C° 0 mm 6 mps 746 mmHg 82%
    07:00 +21°C° 0 mm 6 mps 746 mmHg 77%
    08:00 +23°C° 0 mm 7 mps 746 mmHg 71%
    09:00 +26°C° 0 mm 7 mps 746 mmHg 65%
    10:00 +27°C° 0 mm 7 mps 746 mmHg 59%
    11:00 +29°C° 0 mm 7 mps 746 mmHg 53%
    12:00 +29°C° 0 mm 7 mps 745 mmHg 50%
    13:00 +30°C° 0 mm 7 mps 745 mmHg 47%
    14:00 +32°C° 0 mm 7 mps 745 mmHg 45%
    15:00 +30°C° 0 mm 6 mps 745 mmHg 48%
    16:00 +29°C° 0 mm 6 mps 745 mmHg 52%
    17:00 +29°C° 0 mm 5 mps 744 mmHg 56%
    18:00 +27°C° 0 mm 5 mps 745 mmHg 61%
    19:00 +25°C° 0 mm 5 mps 745 mmHg 66%
    20:00 +22°C° 0 mm 5 mps 745 mmHg 71%
    21:00 +21°C° 0 mm 4 mps 745 mmHg 74%
    22:00 +20°C° 0 mm 4 mps 745 mmHg 77%
    23:00 +19°C° 0 mm 3 mps 745 mmHg 80%
    Mostrar más